Regional Weather Roundup
Issued by NWS Cleveland, OH

Home | Current Version | Previous Version | Graphics & Text | Print | Product List | Glossary On
Versions: 1 2 3 4 5 6 7 8 9 10 11 12 13 14 15 16 17 18 19 20 21 22 23 24 25 26 27 28 29 30 31 32 33 34 35 36 37 38 39 40 41 42 43 44 45 46 47 48 49 50
000
ASUS41 KCLE 020000
RWRCLE
OHIO REGIONAL WEATHER ROUNDUP
NATIONAL WEATHER SERVICE WILMINGTON, OH
800 PM EDT TUE SEP 01 2015

NOTE: "FAIR" INDICATES FEW OR NO CLOUDS BELOW 12,000 FEET WITH NO
SIGNIFICANT WEATHER AND/OR OBSTRUCTIONS TO VISIBILITY.

OHZ001>008-015>018-024>027-034-035-043-044-020100-
   NORTHWEST OHIO

CITY           SKY/WX    TMP DP  RH WIND       PRES   REMARKS
DEFIANCE       CLEAR     81  68  64 SW5       30.06R
FINDLAY        PTCLDY    77  68  73 SW8       30.07R
TOLEDO EXPRESS CLEAR     78  71  79 S5        30.04R
TOLEDO EXEC    CLEAR     83  67  58 S5        30.05R
LIMA           MOCLDY    78  69  73 SW6       30.09R
$$

OHZ009>014-019>023-028>033-038-089-020100-
   NORTHEAST OHIO

CITY           SKY/WX    TMP DP  RH WIND       PRES   REMARKS
CLE-HOPKINS    MOCLDY    75  69  81 SE3       30.08F
CLE-LAKEFRONT  MOCLDY    80  70  71 CALM      30.04F
CUY CO. ARPT   NOT AVBL
LORAIN-ELYRIA  PTCLDY    77  72  84 S3        30.07F
ASHTABULA      CLEAR     74  69  85 CALM      30.09S
AKRON-CANTON   MOCLDY    82  66  58 W3        30.09R
WOOSTER        NOT AVBL
MANSFIELD      MOCLDY    80  67  64 SW5       30.10S
YOUNGSTOWN     MOCLDY    78  68  71 N7        30.09R
$$

OHZ042-051>053-060>062-070>072-077>081-020100-
  SOUTHWEST OHIO

CITY           SKY/WX    TMP DP  RH WIND       PRES   REMARKS
CINC-COVINGTON PTCLDY    81  67  62 W3        30.10R
CINC-LUNKEN    CLEAR     78  70  76 S5        30.08R
HAMILTON       PTCLDY    76  70  82 CALM      30.09S
DAYTON         NOT AVBL
WRIGHT-PAT AFB NOT AVBL
DAYTON GENERAL PTCLDY    73  69  87 CALM      30.10R
WILMINGTON     PTCLDY    78  67  68 SW3       30.10R
$$

OHZ036-037-039>041-045>050-054>059-063>069-073>076-082>088-020100-
  CENTRAL AND SOUTHEAST OHIO

CITY           SKY/WX    TMP DP  RH WIND       PRES   REMARKS
COLUMBUS       MOCLDY    82  66  58 SW6       30.07S
OSU AIRPORT    MOCLDY    80  66  62 W6        30.09R
BOLTON FIELD   NOT AVBL
RICKENBACK AFB NOT AVBL
NEWARK         MOCLDY    77  70  79 CALM      30.08S
MARION         CLOUDY    80  67  64 W5        30.09R
LANCASTER      PTCLDY    77  69  76 CALM      30.09S
ZANESVILLE     MOCLDY    77  68  73 CALM      30.09R
NEW PHILLY     MOCLDY    78  69  73 CALM      30.08S
$$



USA.gov is the U.S. government's official web portal to all federal, state and local government web resources and services.